Zurück zum Katalog

ATLAS 5 CENTAUR DEB

AktivHEO
NORAD 44654·DEBRIS·🇺🇸 United States

Gestartet Oct 17, 2018 von Cape Canaveral Space Force Station

Loading…

Nächste Überflüge (nächste 24 Stunden)

TLE

AktuellSource: Space-Track

Epoche: Sep 11, 2026, 12:00 UTC

1 44654U 18079Q   26254.50020338 -.00000190  00000-0  00000-0 0  9999
2 44654  13.6685  27.2671 4683347 326.0281  11.2431  1.80723610 46859

Verfolge ATLAS 5 CENTAUR DEB in Echtzeit mit AllMySat

Download on the App Store